When you browse on this site, cookies collect data to enhance your experience and personalize the content and advertising you see.
Visit our Privacy Policy to learn more. By continuing to use the site, you agree to this use of cookies and data.
  • en France
  • Liste des pays
  • À 7 jours
  • Température de l'eau
  • Carte météo
  • Widgets météo
  • user-avatar
    Se connecter

    Météo par heure à Recife

    Ce jour, 26 Août, Lundi

    Heure Température Précipitation Vent Pression Humidité
    00:00 +23°C° 0 mm 5 m/s 762 mmHg 85%
    01:00 +23°C° 0 mm 5 m/s 762 mmHg 85%
    02:00 +23°C° 0.1 mm 5 m/s 761 mmHg 86%
    03:00 +23°C° 0.1 mm 5 m/s 761 mmHg 87%
    04:00 +23°C° 0.1 mm 4 m/s 761 mmHg 88%
    05:00 +23°C° 0.2 mm 5 m/s 761 mmHg 88%
    06:00 +23°C° 0.2 mm 5 m/s 761 mmHg 88%
    07:00 +25°C° 0.2 mm 5 m/s 762 mmHg 88%
    08:00 +25°C° 0.4 mm 5 m/s 762 mmHg 85%
    09:00 +26°C° 0.4 mm 6 m/s 762 mmHg 81%
    10:00 +27°C° 0.4 mm 6 m/s 762 mmHg 78%
    11:00 +28°C° 0.2 mm 6 m/s 762 mmHg 75%
    12:00 +29°C° 0.2 mm 7 m/s 762 mmHg 71%
    13:00 +29°C° 0.2 mm 7 m/s 761 mmHg 68%
    14:00 +29°C° 0.2 mm 7 m/s 761 mmHg 69%
    15:00 +29°C° 0.2 mm 6 m/s 761 mmHg 70%
    16:00 +28°C° 0.2 mm 6 m/s 760 mmHg 70%
    17:00 +27°C° 0.1 mm 6 m/s 761 mmHg 74%
    18:00 +26°C° 0.1 mm 6 m/s 761 mmHg 78%
    19:00 +26°C° 0.1 mm 6 m/s 761 mmHg 81%
    20:00 +24°C° 0 mm 6 m/s 761 mmHg 81%
    21:00 +24°C° 0 mm 6 m/s 762 mmHg 81%
    22:00 +25°C° 0 mm 5 m/s 762 mmHg 82%
    23:00 +25°C° 0 mm 5 m/s 762 mmHg 83%

    Demain, 27 Août, Mardi

    Heure Température Précipitation Vent Pression Humidité
    00:00 +25°C° 0 mm 5 m/s 762 mmHg 84%
    01:00 +23°C° 0 mm 5 m/s 761 mmHg 85%
    02:00 +23°C° 0.2 mm 5 m/s 761 mmHg 86%
    03:00 +23°C° 0.2 mm 6 m/s 761 mmHg 87%
    04:00 +23°C° 0.2 mm 6 m/s 761 mmHg 87%
    05:00 +23°C° 0.1 mm 6 m/s 761 mmHg 86%
    06:00 +23°C° 0.1 mm 6 m/s 761 mmHg 85%
    07:00 +23°C° 0.1 mm 5 m/s 761 mmHg 84%
    08:00 +26°C° 0.1 mm 6 m/s 762 mmHg 79%
    09:00 +27°C° 0.1 mm 6 m/s 762 mmHg 75%
    10:00 +28°C° 0.1 mm 7 m/s 762 mmHg 70%
    11:00 +28°C° 0 mm 7 m/s 762 mmHg 66%
    12:00 +29°C° 0 mm 6 m/s 762 mmHg 63%
    13:00 +29°C° 0 mm 6 m/s 762 mmHg 59%
    14:00 +29°C° 0 mm 6 m/s 761 mmHg 60%
    15:00 +29°C° 0 mm 6 m/s 761 mmHg 62%
    16:00 +28°C° 0 mm 6 m/s 761 mmHg 63%
    17:00 +27°C° 0 mm 6 m/s 761 mmHg 67%
    18:00 +26°C° 0 mm 6 m/s 761 mmHg 72%
    19:00 +25°C° 0 mm 5 m/s 761 mmHg 76%
    20:00 +25°C° 0 mm 5 m/s 761 mmHg 77%
    21:00 +25°C° 0 mm 5 m/s 762 mmHg 77%
    22:00 +25°C° 0 mm 5 m/s 762 mmHg 78%
    23:00 +23°C° 0.1 mm 4 m/s 762 mmHg 81%

    Après-demain, 28 Août, Mercredi

    Heure Température Précipitation Vent Pression Humidité
    00:00 +23°C° 0.1 mm 4 m/s 762 mmHg 84%
    01:00 +23°C° 0.1 mm 4 m/s 761 mmHg 86%
    02:00 +23°C° 0.3 mm 4 m/s 761 mmHg 87%
    03:00 +23°C° 0.3 mm 4 m/s 760 mmHg 87%
    04:00 +23°C° 0.3 mm 4 m/s 760 mmHg 87%
    05:00 +23°C° 0.4 mm 4 m/s 760 mmHg 88%
    06:00 +23°C° 0.4 mm 4 m/s 761 mmHg 88%
    07:00 +23°C° 0.4 mm 5 m/s 761 mmHg 88%
    08:00 +25°C° 0.4 mm 5 m/s 761 mmHg 85%
    09:00 +26°C° 0.4 mm 6 m/s 761 mmHg 82%
    10:00 +27°C° 0.4 mm 6 m/s 762 mmHg 78%
    11:00 +27°C° 0.1 mm 6 m/s 761 mmHg 72%
    12:00 +28°C° 0.1 mm 6 m/s 761 mmHg 67%
    13:00 +29°C° 0.1 mm 6 m/s 761 mmHg 61%
    14:00 +29°C° 0.1 mm 6 m/s 760 mmHg 63%
    15:00 +28°C° 0.1 mm 6 m/s 760 mmHg 66%
    16:00 +28°C° 0.1 mm 6 m/s 760 mmHg 68%
    17:00 +27°C° 0.1 mm 6 m/s 760 mmHg 72%
    18:00 +26°C° 0.1 mm 6 m/s 760 mmHg 75%
    19:00 +25°C° 0.1 mm 5 m/s 760 mmHg 79%
    20:00 +23°C° 0 mm 5 m/s 761 mmHg 79%
    21:00 +23°C° 0 mm 5 m/s 761 mmHg 79%
    22:00 +23°C° 0 mm 5 m/s 761 mmHg 80%
    23:00 +23°C° 0 mm 5 m/s 761 mmHg 81%

    29 Août, Jeudi

    Heure Température Précipitation Vent Pression Humidité
    00:00 +23°C° 0 mm 5 m/s 761 mmHg 81%
    01:00 +23°C° 0 mm 4 m/s 761 mmHg 82%
    02:00 +22°C° 0.1 mm 4 m/s 760 mmHg 83%
    03:00 +22°C° 0.1 mm 4 m/s 760 mmHg 83%
    04:00 +22°C° 0.1 mm 4 m/s 760 mmHg 83%
    05:00 +22°C° 0.2 mm 4 m/s 760 mmHg 84%
    06:00 +23°C° 0.2 mm 5 m/s 760 mmHg 84%
    07:00 +23°C° 0.2 mm 5 m/s 761 mmHg 84%
    08:00 +25°C° 0 mm 5 m/s 761 mmHg 77%
    09:00 +26°C° 0 mm 5 m/s 761 mmHg 69%
    10:00 +28°C° 0 mm 5 m/s 762 mmHg 61%
    11:00 +28°C° 0 mm 5 m/s 761 mmHg 60%
    12:00 +28°C° 0 mm 5 m/s 761 mmHg 58%
    13:00 +29°C° 0 mm 5 m/s 760 mmHg 57%
    14:00 +28°C° 0 mm 5 m/s 760 mmHg 58%
    15:00 +28°C° 0 mm 5 m/s 759 mmHg 58%
    16:00 +28°C° 0 mm 4 m/s 759 mmHg 59%
    17:00 +27°C° 0 mm 4 m/s 759 mmHg 64%
    18:00 +26°C° 0 mm 4 m/s 760 mmHg 69%
    19:00 +23°C° 0 mm 4 m/s 760 mmHg 73%
    20:00 +23°C° 0 mm 4 m/s 761 mmHg 76%
    21:00 +23°C° 0 mm 4 m/s 761 mmHg 79%
    22:00 +23°C° 0 mm 4 m/s 762 mmHg 82%
    23:00 +23°C° 0.2 mm 4 m/s 761 mmHg 84%

    30 Août, Vendredi

    Heure Température Précipitation Vent Pression Humidité
    00:00 +22°C° 0.2 mm 4 m/s 761 mmHg 86%
    01:00 +22°C° 0.2 mm 5 m/s 761 mmHg 88%
    02:00 +22°C° 0.4 mm 5 m/s 760 mmHg 89%
    03:00 +23°C° 0.4 mm 5 m/s 760 mmHg 89%
    04:00 +23°C° 0.4 mm 5 m/s 760 mmHg 90%
    05:00 +23°C° 0.3 mm 5 m/s 760 mmHg 90%
    06:00 +23°C° 0.3 mm 5 m/s 760 mmHg 90%
    07:00 +23°C° 0.3 mm 5 m/s 760 mmHg 90%
    08:00 +25°C° 0.5 mm 5 m/s 761 mmHg 87%
    09:00 +26°C° 0.5 mm 5 m/s 761 mmHg 83%
    10:00 +27°C° 0.5 mm 6 m/s 761 mmHg 80%
    11:00 +27°C° 0.4 mm 6 m/s 761 mmHg 79%
    12:00 +27°C° 0.4 mm 6 m/s 761 mmHg 78%
    13:00 +28°C° 0.4 mm 6 m/s 760 mmHg 77%
    14:00 +27°C° 0.4 mm 5 m/s 760 mmHg 78%
    15:00 +27°C° 0.4 mm 5 m/s 760 mmHg 79%
    16:00 +27°C° 0.4 mm 5 m/s 759 mmHg 81%
    17:00 +26°C° 0.4 mm 5 m/s 760 mmHg 83%
    18:00 +26°C° 0.4 mm 5 m/s 760 mmHg 84%
    19:00 +25°C° 0.4 mm 5 m/s 760 mmHg 86%
    20:00 +25°C° 0.4 mm 5 m/s 760 mmHg 86%
    21:00 +25°C° 0.4 mm 5 m/s 761 mmHg 87%
    22:00 +25°C° 0.4 mm 5 m/s 761 mmHg 87%
    23:00 +25°C° 0.2 mm 5 m/s 761 mmHg 86%

    31 Août, Samedi

    Heure Température Précipitation Vent Pression Humidité
    00:00 +25°C° 0.2 mm 5 m/s 760 mmHg 86%
    01:00 +25°C° 0.2 mm 5 m/s 760 mmHg 86%
    02:00 +25°C° 0.2 mm 4 m/s 760 mmHg 86%
    03:00 +23°C° 0.2 mm 4 m/s 760 mmHg 86%
    04:00 +23°C° 0.2 mm 4 m/s 759 mmHg 87%
    05:00 +23°C° 0.2 mm 4 m/s 760 mmHg 87%
    06:00 +23°C° 0.2 mm 4 m/s 760 mmHg 87%
    07:00 +25°C° 0.2 mm 4 m/s 760 mmHg 87%
    08:00 +26°C° 0.1 mm 4 m/s 761 mmHg 81%
    09:00 +27°C° 0.1 mm 4 m/s 761 mmHg 75%
    10:00 +28°C° 0.1 mm 5 m/s 761 mmHg 69%
    11:00 +29°C° 0 mm 4 m/s 761 mmHg 66%
    12:00 +29°C° 0 mm 4 m/s 760 mmHg 63%
    13:00 +30°C° 0 mm 4 m/s 760 mmHg 59%
    14:00 +30°C° 0 mm 4 m/s 759 mmHg 61%
    15:00 +29°C° 0 mm 4 m/s 759 mmHg 63%
    16:00 +29°C° 0 mm 4 m/s 759 mmHg 65%
    17:00 +28°C° 0.1 mm 4 m/s 759 mmHg 72%
    18:00 +27°C° 0.1 mm 4 m/s 759 mmHg 78%
    19:00 +25°C° 0.1 mm 3 m/s 759 mmHg 85%
    20:00 +25°C° 0.1 mm 4 m/s 760 mmHg 86%
    21:00 +25°C° 0.1 mm 4 m/s 760 mmHg 86%
    22:00 +25°C° 0.1 mm 4 m/s 760 mmHg 87%
    23:00 +25°C° 0 mm 4 m/s 760 mmHg 87%
    Voir plus